EW3393 Weather Reports


Display with metric or nautical units.
time (UTC)temp
F
wind
direction
speed
MPH
gust
MPH
rain 1hr
in
rain 24hr
in
rain mn
in
humidity
%
barometer
mb
20260831001830 102 261 24.0 27.0 0.00 0.00 0.00 18 1006.4
20260831001342 102 268 16.0 29.0 0.00 0.00 0.00 17 1006.4
20260831000853 103 263 22.0 29.0 0.00 0.00 0.00 17 1006.3
20260831000344 103 268 18.0 26.0 0.00 0.00 0.00 17 1006.4
20260830235813 103 273 18.0 26.0 0.00 0.00 0.00 17 1006.4
20260830235325 103 244 19.0 27.0 0.00 0.00 0.00 17 1006.4
20260830234822 103 265 17.0 27.0 0.00 0.00 0.00 17 1006.4
20260830234313 103 250 18.0 28.0 0.00 0.00 0.00 17 1006.5
20260830233827 103 249 16.0 28.0 0.00 0.00 0.00 17 1006.4
20260830233319 103 265 12.0 18.0 0.00 0.00 0.00 17 1006.6
20260830232832 103 267 9.0 22.0 0.00 0.00 0.00 17 1006.5
20260830232323 104 252 17.0 23.0 0.00 0.00 0.00 16 1006.5
20260830231816 104 248 16.0 23.0 0.00 0.00 0.00 16 1006.6
20260830231326 104 265 11.0 17.0 0.00 0.00 0.00 16 1006.6
20260830230841 104 309 11.0 18.0 0.00 0.00 0.00 16 1006.6
20260830230330 104 234 6.0 20.0 0.00 0.00 0.00 17 1006.6
20260830225817 104 213 10.0 20.0 0.00 0.00 0.00 17 1006.8
20260830225328 104 273 4.0 18.0 0.00 0.00 0.00 17 1006.7
20260830224840 104 265 12.0 16.0 0.00 0.00 0.00 17 1006.8
20260830224330 104 306 5.0 10.0 0.00 0.00 0.00 18 1006.9
20260830223842 104 248 7.0 10.0 0.00 0.00 0.00 18 1007.0
20260830223332 104 164 4.0 12.0 0.00 0.00 0.00 18 1007.0
20260830222826 104 207 8.0 12.0 0.00 0.00 0.00 19 1007.0
20260830222316 104 141 4.0 9.0 0.00 0.00 0.00 18 1007.2
20260830221828 104 17 3.0 8.0 0.00 0.00 0.00 18 1007.3
20260830221324 104 232 4.0 11.0 0.00 0.00 0.00 18 1007.4
20260830220817 104 161 6.0 11.0 0.00 0.00 0.00 19 1007.5
20260830220329 104 202 8.0 11.0 0.00 0.00 0.00 19 1007.5
20260830215837 104 217 4.0 7.0 0.00 0.00 0.00 19 1007.6
20260830215327 103 106 4.0 11.0 0.00 0.00 0.00 20 1007.7
20260830214819 104 100 5.0 10.0 0.00 0.00 0.00 19 1007.8
20260830214330 104 107 3.0 10.0 0.00 0.00 0.00 19 1007.9
20260830213823 104 200 5.0 10.0 0.00 0.00 0.00 19 1008.1
20260830213318 104 168 3.0 9.0 0.00 0.00 0.00 19 1008.2
20260830212831 104 128 5.0 8.0 0.00 0.00 0.00 19 1008.3
20260830212322 103 132 4.0 7.0 0.00 0.00 0.00 19 1008.4
20260830211834 103 152 4.0 10.0 0.00 0.00 0.00 20 1008.5
20260830211344 102 222 6.0 11.0 0.00 0.00 0.00 20 1008.5
20260830210817 102 242 3.0 12.0 0.00 0.00 0.00 20 1008.6
20260830210327 102 184 8.0 12.0 0.00 0.00 0.00 20 1008.7
20260830205816 102 182 7.0 12.0 0.00 0.00 0.00 21 1008.8
20260830205326 101 195 6.0 12.0 0.00 0.00 0.00 21 1008.8
20260830204838 102 80 5.0 12.0 0.00 0.00 0.00 21 1008.9
20260830204328 102 114 6.0 9.0 0.00 0.00 0.00 21 1009.0
20260830203825 102 186 5.0 9.0 0.00 0.00 0.00 21 1009.0
20260830203315 102 90 3.0 8.0 0.00 0.00 0.00 21 1009.1
20260830202829 102 332 2.0 14.0 0.00 0.00 0.00 21 1009.1
20260830202320 103 167 9.0 14.0 0.00 0.00 0.00 21 1009.2
20260830201813 102 175 5.0 11.0 0.00 0.00 0.00 21 1009.2
20260830201323 101 148 3.0 13.0 0.00 0.00 0.00 21 1009.3
20260830200814 101 133 9.0 13.0 0.00 0.00 0.00 21 1009.3
20260830200325 100 131 5.0 13.0 0.00 0.00 0.00 21 1009.3
20260830195813 101 107 4.0 13.0 0.00 0.00 0.00 21 1009.4
20260830195344 100 157 6.0 12.0 0.00 0.00 0.00 21 1009.5
20260830194835 100 70 6.0 12.0 0.00 0.00 0.00 21 1009.4
20260830194328 101 126 8.0 15.0 0.00 0.00 0.00 20 1009.5
20260830193820 101 117 8.0 15.0 0.00 0.00 0.00 20 1009.6
20260830193330 100 136 3.0 10.0 0.00 0.00 0.00 20 1009.7
20260830192821 101 122 4.0 13.0 0.00 0.00 0.00 20 1009.7
20260830192330 101 136 7.0 13.0 0.00 0.00 0.00 20 1009.9
20260830191821 101 137 7.0 13.0 0.00 0.00 0.00 19 1009.8
20260830191332 101 152 6.0 15.0 0.00 0.00 0.00 19 1009.8
20260830190824 101 124 7.0 15.0 0.00 0.00 0.00 20 1009.9
20260830190335 100 161 9.0 15.0 0.00 0.00 0.00 20 1009.9
20260830185826 100 180 8.0 12.0 0.00 0.00 0.00 21 1010.0
20260830185317 100 166 8.0 14.0 0.00 0.00 0.00 21 1010.1
20260830184829 100 135 9.0 14.0 0.00 0.00 0.00 21 1010.1
20260830184319 100 138 5.0 11.0 0.00 0.00 0.00 21 1010.1
20260830183832 100 151 6.0 11.0 0.00 0.00 0.00 21 1010.3
20260830183321 100 141 7.0 12.0 0.00 0.00 0.00 21 1010.3
20260830182813 100 154 8.0 11.0 0.00 0.00 0.00 21 1010.3
20260830182323 100 134 9.0 15.0 0.00 0.00 0.00 22 1010.4
20260830181819 100 136 6.0 12.0 0.00 0.00 0.00 22 1010.3
20260830181328 100 171 6.0 12.0 0.00 0.00 0.00 21 1010.4
20260830180820 100 111 4.0 12.0 0.00 0.00 0.00 20 1010.4
20260830180331 100 170 7.0 12.0 0.00 0.00 0.00 21 1010.4
20260830175820 99 180 6.0 8.0 0.00 0.00 0.00 21 1010.3
20260830175331 98 355 2.0 4.0 0.00 0.00 0.00 21 1010.3
20260830174844 98 304 3.0 4.0 0.00 0.00 0.00 21 1010.3
20260830174314 98 5 1.0 6.0 0.00 0.00 0.00 21 1010.3
20260830173827 98 173 2.0 6.0 0.00 0.00 0.00 21 1010.4
20260830173338 97 89 3.0 7.0 0.00 0.00 0.00 21 1010.3
20260830172850 97 178 3.0 7.0 0.00 0.00 0.00 22 1010.3
20260830172323 96 192 5.0 7.0 0.00 0.00 0.00 22 1010.4
20260830171816 96 214 5.0 10.0 0.00 0.00 0.00 23 1010.3
20260830171327 95 229 5.0 10.0 0.00 0.00 0.00 23 1010.3
20260830170820 95 263 3.0 10.0 0.00 0.00 0.00 24 1010.3
20260830170330 95 293 7.0 12.0 0.00 0.00 0.00 24 1010.3
20260830165818 95 300 8.0 12.0 0.00 0.00 0.00 24 1010.1
20260830165329 94 329 9.0 11.0 0.00 0.00 0.00 24 1010.1
20260830164821 94 314 9.0 13.0 0.00 0.00 0.00 24 1010.0
20260830164331 94 313 9.0 14.0 0.00 0.00 0.00 25 1010.1
20260830163828 94 304 10.0 14.0 0.00 0.00 0.00 25 1010.1
20260830163318 93 286 10.0 15.0 0.00 0.00 0.00 25 1010.0
20260830162831 93 284 11.0 15.0 0.00 0.00 0.00 25 1010.0
20260830162321 93 280 10.0 14.0 0.00 0.00 0.00 25 1010.0
20260830161814 93 286 9.0 12.0 0.00 0.00 0.00 26 1010.0
20260830161325 92 298 9.0 12.0 0.00 0.00 0.00 26 1010.0
20260830160818 92 292 9.0 12.0 0.00 0.00 0.00 26 1010.0
20260830160349 92 271 10.0 12.0 0.00 0.00 0.00 27 1010.0
20260830155817 91 296 10.0 13.0 0.00 0.00 0.00 27 1010.0
20260830155330 91 276 10.0 14.0 0.00 0.00 0.00 27 1010.0
20260830154822 91 262 11.0 14.0 0.00 0.00 0.00 27 1010.1
20260830154332 91 263 11.0 14.0 0.00 0.00 0.00 27 1010.1
20260830153822 91 267 11.0 14.0 0.00 0.00 0.00 27 1010.0
20260830153332 91 275 11.0 14.0 0.00 0.00 0.00 28 1010.1
20260830152844 90 292 11.0 14.0 0.00 0.00 0.00 28 1010.1
20260830152314 90 257 9.0 15.0 0.00 0.00 0.00 28 1010.1
20260830151826 90 271 12.0 15.0 0.00 0.00 0.00 29 1010.2
20260830151316 89 286 10.0 14.0 0.00 0.00 0.00 29 1010.1
20260830150848 89 286 11.0 14.0 0.00 0.00 0.00 29 1010.1
20260830150322 89 269 10.0 13.0 0.00 0.00 0.00 30 1010.1
20260830145831 88 284 10.0 13.0 0.00 0.00 0.00 30 1010.1
20260830145321 88 292 10.0 13.0 0.00 0.00 0.00 31 1010.1
20260830144833 87 294 10.0 12.0 0.00 0.00 0.00 31 1010.0
20260830144323 87 282 9.0 14.0 0.00 0.00 0.00 32 1010.0
20260830143816 86 282 12.0 14.0 0.00 0.00 0.00 32 1010.0
20260830143326 86 281 10.0 13.0 0.00 0.00 0.00 33 1010.0
20260830142819 86 298 10.0 14.0 0.00 0.00 0.00 33 1010.0
20260830142330 86 308 10.0 14.0 0.00 0.00 0.00 33 1009.9
20260830141826 86 284 11.0 13.0 0.00 0.00 0.00 33 1009.9
20260830141316 86 277 10.0 14.0 0.00 0.00 0.00 33 1009.8
20260830140848 85 286 10.0 14.0 0.00 0.00 0.00 33 1009.8
20260830140340 85 286 11.0 13.0 0.00 0.00 0.00 34 1009.8
20260830135826 84 292 9.0 11.0 0.00 0.00 0.00 34 1009.8
20260830135335 84 279 9.0 12.0 0.00 0.00 0.00 34 1009.8
20260830134825 84 279 11.0 12.0 0.00 0.00 0.00 34 1009.7
20260830134316 84 300 10.0 12.0 0.00 0.00 0.00 34 1009.5
20260830133828 84 306 9.0 11.0 0.00 0.00 0.00 34 1009.5
20260830133319 84 296 8.0 11.0 0.00 0.00 0.00 34 1009.5
20260830132852 84 307 9.0 11.0 0.00 0.00 0.00 34 1009.4
20260830132321 84 324 6.0 11.0 0.00 0.00 0.00 34 1009.4
20260830131815 85 304 9.0 12.0 0.00 0.00 0.00 33 1009.4
20260830131327 85 298 9.0 12.0 0.00 0.00 0.00 33 1009.3
20260830130819 85 304 8.0 11.0 0.00 0.00 0.00 32 1009.3
20260830130330 85 304 9.0 12.0 0.00 0.00 0.00 32 1009.3
20260830125819 85 309 9.0 12.0 0.00 0.00 0.00 32 1009.2
20260830125330 85 305 7.0 11.0 0.00 0.00 0.00 32 1009.2
20260830124823 86 312 8.0 11.0 0.00 0.00 0.00 32 1009.1
20260830124315 86 313 8.0 10.0 0.00 0.00 0.00 32 1009.1
20260830123848 86 308 8.0 10.0 0.00 0.00 0.00 32 1009.0
20260830123317 86 317 9.0 10.0 0.00 0.00 0.00 32 1009.0
20260830122833 86 319 8.0 11.0 0.00 0.00 0.00 32 1009.0
20260830122344 86 317 8.0 12.0 0.00 0.00 0.00 32 1009.0
20260830121834 86 314 9.0 11.0 0.00 0.00 0.00 32 1008.9
20260830121343 86 314 8.0 12.0 0.00 0.00 0.00 32 1008.8
20260830120814 86 298 10.0 13.0 0.00 0.00 0.00 32 1008.8
20260830120325 86 323 11.0 12.0 0.00 0.00 0.00 32 1008.8
20260830115834 86 312 9.0 15.0 0.00 0.00 0.00 32 1008.8
20260830115325 86 310 11.0 16.0 0.00 0.00 0.00 32 1008.8
20260830114816 86 309 9.0 16.0 0.00 0.00 0.00 32 1008.8
20260830114326 86 300 11.0 14.0 0.00 0.00 0.00 32 1008.8
20260830113817 87 316 10.0 13.0 0.00 0.00 0.00 32 1008.8
20260830113326 87 329 7.0 16.0 0.00 0.00 0.00 32 1008.8
20260830112822 87 306 12.0 16.0 0.00 0.00 0.00 32 1008.7
20260830112313 87 309 11.0 16.0 0.00 0.00 0.00 31 1008.7
20260830111827 87 311 10.0 16.0 0.00 0.00 0.00 32 1008.7
20260830111318 87 317 12.0 19.0 0.00 0.00 0.00 31 1008.6
20260830110850 87 294 14.0 18.0 0.00 0.00 0.00 32 1008.7
20260830110340 87 304 13.0 18.0 0.00 0.00 0.00 32 1008.7
20260830105828 87 306 13.0 17.0 0.00 0.00 0.00 32 1008.6
20260830105317 87 323 12.0 17.0 0.00 0.00 0.00 32 1008.6
20260830104827 87 324 13.0 17.0 0.00 0.00 0.00 32 1008.7
20260830104316 87 288 12.0 19.0 0.00 0.00 0.00 31 1008.6
20260830103847 88 288 15.0 19.0 0.00 0.00 0.00 31 1008.6
20260830103316 87 282 13.0 17.0 0.00 0.00 0.00 31 1008.5
20260830102813 87 271 13.0 16.0 0.00 0.00 0.00 31 1008.5
20260830102322 87 290 12.0 16.0 0.00 0.00 0.00 32 1008.4
20260830101813 87 283 12.0 15.0 0.00 0.00 0.00 32 1008.4
20260830101322 87 301 12.0 15.0 0.00 0.00 0.00 32 1008.3
20260830100813 87 290 11.0 15.0 0.00 0.00 0.00 32 1008.3
20260830100324 87 296 11.0 15.0 0.00 0.00 0.00 32 1008.2
20260830095832 86 278 12.0 15.0 0.00 0.00 0.00 32 1008.3
20260830095322 86 287 8.0 13.0 0.00 0.00 0.00 33 1008.2
20260830094813 86 276 8.0 11.0 0.00 0.00 0.00 33 1008.1
20260830094322 86 294 8.0 10.0 0.00 0.00 0.00 33 1008.1
20260830093819 86 261 8.0 12.0 0.00 0.00 0.00 33 1008.1
20260830093349 86 266 8.0 12.0 0.00 0.00 0.00 33 1008.0
20260830092840 86 294 9.0 11.0 0.00 0.00 0.00 34 1008.1
20260830092330 86 306 8.0 11.0 0.00 0.00 0.00 34 1008.1
20260830091821 86 282 9.0 11.0 0.00 0.00 0.00 34 1008.0
20260830091331 86 298 8.0 10.0 0.00 0.00 0.00 34 1008.0
20260830090844 86 320 6.0 9.0 0.00 0.00 0.00 34 1008.1
20260830090313 86 318 5.0 9.0 0.00 0.00 0.00 34 1008.2
20260830085822 86 296 7.0 10.0 0.00 0.00 0.00 35 1008.2
20260830085332 86 310 8.0 10.0 0.00 0.00 0.00 35 1008.2
20260830084824 86 308 8.0 10.0 0.00 0.00 0.00 35 1008.2
20260830084319 86 312 8.0 10.0 0.00 0.00 0.00 35 1008.3
20260830083852 86 331 8.0 10.0 0.00 0.00 0.00 35 1008.2
20260830083320 86 309 8.0 10.0 0.00 0.00 0.00 35 1008.2
20260830082814 86 308 8.0 10.0 0.00 0.00 0.00 35 1008.2
20260830082324 86 307 9.0 10.0 0.00 0.00 0.00 35 1008.2
20260830081836 87 313 9.0 11.0 0.00 0.00 0.00 35 1008.2
20260830081325 87 311 9.0 13.0 0.00 0.00 0.00 35 1008.2
20260830080818 87 304 11.0 13.0 0.00 0.00 0.00 35 1008.2
20260830080329 87 304 9.0 13.0 0.00 0.00 0.00 34 1008.3
20260830075836 87 301 10.0 14.0 0.00 0.00 0.00 34 1008.3
20260830075329 87 269 11.0 14.0 0.00 0.00 0.00 34 1008.3
20260830074822 87 288 11.0 14.0 0.00 0.00 0.00 34 1008.3
20260830074333 87 294 8.0 11.0 0.00 0.00 0.00 34 1008.4
20260830073826 88 284 7.0 11.0 0.00 0.00 0.00 33 1008.4
20260830073314 88 285 8.0 13.0 0.00 0.00 0.00 33 1008.5
20260830072826 88 281 10.0 13.0 0.00 0.00 0.00 32 1008.4
20260830072317 88 288 8.0 12.0 0.00 0.00 0.00 32 1008.5
20260830071828 89 292 8.0 11.0 0.00 0.00 0.00 32 1008.5
20260830071318 89 275 9.0 13.0 0.00 0.00 0.00 32 1008.5
20260830070347 90 287 11.0 17.0 0.00 0.00 0.00 31 1008.5
20260830065818 90 298 11.0 16.0 0.00 0.00 0.00 31 1008.5
20260830065349 90 303 12.0 17.0 0.00 0.00 0.00 31 1008.5
20260830064819 90 300 13.0 18.0 0.00 0.00 0.00 32 1008.5
20260830064329 90 292 13.0 19.0 0.00 0.00 0.00 32 1008.5
20260830063821 90 302 14.0 22.0 0.00 0.00 0.00 32 1008.4
20260830063330 90 314 15.0 20.0 0.00 0.00 0.00 31 1008.4
20260830062823 90 319 16.0 21.0 0.00 0.00 0.00 31 1008.4
20260830062313 90 307 15.0 21.0 0.00 0.00 0.00 31 1008.5
20260830061826 90 288 14.0 21.0 0.00 0.00 0.00 31 1008.5
20260830061318 90 305 14.0 21.0 0.00 0.00 0.00 31 1008.5
20260830060815 90 298 14.0 21.0 0.00 0.00 0.00 31 1008.5
20260830060327 90 308 13.0 22.0 0.00 0.00 0.00 31 1008.5
20260830055835 90 288 17.0 21.0 0.00 0.00 0.00 31 1008.5
20260830055325 90 328 15.0 21.0 0.00 0.00 0.00 31 1008.5
20260830054816 90 288 15.0 22.0 0.00 0.00 0.00 31 1008.5
20260830054326 90 296 16.0 22.0 0.00 0.00 0.00 31 1008.5
20260830053818 90 300 15.0 22.0 0.00 0.00 0.00 31 1008.5
20260830053329 90 296 17.0 21.0 0.00 0.00 0.00 31 1008.5
20260830052821 90 262 15.0 23.0 0.00 0.00 0.00 31 1008.5
20260830052315 91 271 19.0 23.0 0.00 0.00 0.00 30 1008.5
20260830051828 91 294 16.0 21.0 0.00 0.00 0.00 30 1008.5
20260830051319 91 300 14.0 24.0 0.00 0.00 0.00 30 1008.5
20260830050832 91 281 16.0 28.0 0.00 0.00 0.00 30 1008.4
20260830050343 91 267 17.0 25.0 0.00 0.00 0.00 30 1008.3
20260830045831 91 273 19.0 25.0 0.00 0.00 0.00 29 1008.2
20260830045321 92 277 18.0 25.0 0.00 0.00 0.00 29 1008.3
20260830044854 92 267 19.0 26.0 0.00 0.00 0.00 28 1008.2
20260830044323 92 289 16.0 25.0 0.00 0.00 0.00 28 1008.3
20260830043835 92 296 18.0 25.0 0.00 0.00 0.00 28 1008.2
20260830043323 93 286 14.0 21.0 0.00 0.00 0.00 27 1008.1
20260830042839 93 277 15.0 21.0 0.00 0.00 0.00 27 1008.1
20260830042328 93 294 15.0 20.0 0.00 0.00 0.00 27 1008.0
20260830041821 93 304 13.0 25.0 0.00 0.00 0.00 27 1008.0
20260830041332 93 287 15.0 25.0 0.00 0.00 0.00 27 1007.9
20260830040824 94 278 15.0 23.0 0.00 0.00 0.00 27 1007.9
20260830040334 94 288 17.0 23.0 0.00 0.00 0.00 27 1007.8
20260830035822 94 270 15.0 23.0 0.00 0.00 0.00 27 1007.8
20260830035332 94 286 16.0 23.0 0.00 0.00 0.00 27 1007.8
20260830034824 94 280 18.0 24.0 0.00 0.00 0.00 26 1007.6
20260830034314 94 284 18.0 26.0 0.00 0.00 0.00 26 1007.6
20260830033846 94 290 19.0 25.0 0.00 0.00 0.00 26 1007.5
20260830033339 94 271 16.0 23.0 0.00 0.00 0.00 26 1007.5
20260830032829 95 266 16.0 23.0 0.00 0.00 0.00 26 1007.4
20260830032320 95 295 15.0 24.0 0.00 0.00 0.00 26 1007.4
20260830031832 95 301 17.0 24.0 0.00 0.00 0.00 26 1007.3
20260830031323 95 290 17.0 26.0 0.00 0.00 0.00 25 1007.2
20260830030815 96 278 16.0 27.0 0.00 0.00 0.00 25 1007.1
20260830030346 96 280 18.0 27.0 0.00 0.00 0.00 25 1007.0
20260830025813 96 268 16.0 24.0 0.00 0.00 0.00 25 1007.0
20260830025324 96 284 18.0 24.0 0.00 0.00 0.00 25 1006.9
20260830024821 96 265 17.0 24.0 0.00 0.00 0.00 25 1006.8
20260830024332 96 286 17.0 24.0 0.00 0.00 0.00 25 1006.8
20260830023844 97 277 17.0 29.0 0.00 0.00 0.00 25 1006.7
20260830023313 97 279 23.0 29.0 0.00 0.00 0.00 25 1006.7
20260830022825 97 296 19.0 26.0 0.00 0.00 0.00 25 1006.7
20260830022315 98 267 19.0 28.0 0.00 0.00 0.00 24 1006.7
20260830021827 98 307 19.0 28.0 0.00 0.00 0.00 24 1006.6
20260830021317 98 302 20.0 26.0 0.00 0.00 0.00 24 1006.5
20260830020829 98 302 16.0 28.0 0.00 0.00 0.00 24 1006.6
20260830020319 99 269 23.0 28.0 0.00 0.00 0.00 24 1006.5
20260830015847 99 263 18.0 23.0 0.00 0.00 0.00 24 1006.6
20260830015340 99 286 17.0 23.0 0.00 0.00 0.00 24 1006.5
20260830014832 100 300 16.0 26.0 0.00 0.00 0.00 24 1006.5
20260830014322 100 298 19.0 26.0 0.00 0.00 0.00 24 1006.6
20260830013815 100 281 19.0 30.0 0.00 0.00 0.00 24 1006.5
20260830013326 100 277 20.0 30.0 0.00 0.00 0.00 23 1006.5
20260830012839 101 266 15.0 28.0 0.00 0.00 0.00 23 1006.5
20260830012328 101 271 20.0 28.0 0.00 0.00 0.00 23 1006.4
20260830011820 102 290 17.0 25.0 0.00 0.00 0.00 23 1006.4
20260830011351 102 262 18.0 25.0 0.00 0.00 0.00 23 1006.5
20260830010843 101 300 17.0 24.0 0.00 0.00 0.00 23 1006.5
20260830010317 101 285 18.0 23.0 0.00 0.00 0.00 24 1006.5
20260830005825 102 296 16.0 26.0 0.00 0.00 0.00 23 1006.4
20260830005315 103 280 18.0 25.0 0.00 0.00 0.00 23 1006.4
20260830004828 103 247 20.0 29.0 0.00 0.00 0.00 22 1006.4
20260830004318 104 268 18.0 29.0 0.00 0.00 0.00 22 1006.4
20260830003832 104 272 20.0 29.0 0.00 0.00 0.00 22 1006.4
20260830003323 104 289 24.0 29.0 0.00 0.00 0.00 22 1006.3
20260830002815 104 263 19.0 28.0 0.00 0.00 0.00 21 1006.3
20260830002324 105 261 17.0 26.0 0.00 0.00 0.00 21 1006.2